Погода в Виви

Погода в Виви : погода сейчас, прогноз погоды и архив. Всё, что Вы хотите узнать о погоде в Виви!

Поиск расширенной информации на нашем сайте:

Другие новости

Новости СМИ2

Главная страница сайта

Новости сайта

03.07.2017

Напоминаем, что на нашем специализированном сайте Метеоцентр.Азия вы можете получить высокодетализированные автоматические прогнозы погоды по пунктам России, СНГ и мира в авиационном формате (включающие направление и скорость ветра, видимость, явления погоды, количество и форму облачности, нижнюю и верхнюю границу облачности).


Погода в Виви - сегодня

Время (UTC), дата Ветер
(°,м/с) 
Видим.   Явления Облачность Т
(°С)
Тd
(°С)
f(%) Тe
(°С)
Pmin
(гПа)
dP
(гПа)
Po
(мм)
O2
(г/м3)
Тmin Tmax R s Состояние
почвы
12 09.08.17 290 (З) 10 км  дым  4/0 верхняя 
[Ci fib]
+26.1 +13.4 45 +33  999.2  730  266    +29.1       
18 09.08.17 тихо ()   н/о  слаб. ливневой дождь{гроза}  10/10 600 м кучево-дожд. 
[Cb cap]
+15.4 +13.4 88 +22  1007.2  731  276           
21 09.08.17 060 (СВ) н/о    3/0 средняя 
[Ac As]
+10.2 +9.2 94 +11  1005.1  -0.5  750  290           
00 10.08.17 тихо ()   20000 м  {ливн. осадки}  10/10 600 м кучево-дожд. 
[Cb cap]
+11.6 +9.8 89 +13  1000.5  730  280  +9.3       
06 10.08.17 180 (Ю) 10 км  слаб. ливневой дождь  10/10 600 м кучево-дожд. 
[Cb cap]
+16.6 +13 79 +24  999.7  730  275           
12 10.08.17 тихо ()   20000 м  {ливн. осадки}  10/10 600 м кучево-дожд. 
[Cb cap]
+15.3 +12.8 85 +21  1002  731  277    +17.2     
06 11.08.17 160 (Ю) 20000 м    9/3 600 м кучево-дожд., средняя 
[Cb calv|Ac As]
+19 +9.5 54 +21  1003  732  274           
18 11.08.17 тихо ()   н/о    6/6 1000 м 
[Sc]
+10.3 +8.9 91 +10  1007.2  735  284           
06 12.08.17 тихо ()   20000 м    8/4 600 м кучево-дожд., верхняя 
[Cb cap|Ci fib]
+24.3 +9.5 39 +25  1007  736  271           
00 13.08.17 250 (З) 20000 м    3/3 1000 м 
[Sc]
+18.2 +12.2 68 +25  1006  735  275  +10.2         
06 13.08.17 230 (ЮЗ) 20000 м    9/0 средняя, верхняя 
[As trans|Ci fib]
+26.3 +14.3 48 +34  1004.5  734  267           
18 13.08.17 270 (З) н/о    10/10 1000 м 
[Sc]
+15.1 +12.9 87 +22  1008.3  736  278           
06 14.08.17 250 (З) 20000 м  {ливн. осадки}  10/10 600 м кучево-дожд. 
[Cb cap]
+13.6 +10.1 79 +17  1007.1  735  280           
12 14.08.17 290 (З) 20000 м    10/10 600 м кучево-дожд. 
[Cb cap]
+12 +9.4 84 +14  1011.3  738  283    +14.2     
00 15.08.17 тихо ()   20000 м    3/0 средняя 
[As trans]
+9.5 +7.8 89 +10  1018.2  743  288  +6.6         
06 15.08.17 230 (ЮЗ) 20000 м    10/8 600 м кучево-дожд., средняя 
[Cb cap|As trans]
+14.3 +3.2 47 +14  1018.5  743  284           
12 15.08.17 230 (ЮЗ) 20000 м    8/6 1000 м верхняя 
[Sc|Ci fib]
+14 +3.1 48 +15  1019.6  744  285    +15.8       
06 16.08.17 360 (С) 20000 м    10/10 1000 м 
[Sc]
+15 +3.1 45 +16  1020.1  745  284           
12 16.08.17 тихо ()   20000 м    10/10 1000 м 
[Sc]
+15.4 +6.4 55 +15  1018.1  743  282    +16.4       
18 16.08.17 тихо ()   н/о    9/9 1000 м 
[Sc]
+8.6 +6.9 89 +9  1018.2  743  289           
00 17.08.17 тихо ()   20000 м    8/8 1000 м 
[Sc]
+8.4 +6.7 89 +8  1018  743  289  +5.6         
06 17.08.17 250 (З) 20000 м    8/8 600 м 
[Cu med, cong]
+18.1 +3 36 +19  1014.7  741  279           
12 17.08.17 тихо ()   20000 м    9/9 1000 м 
[Sc]
+15.9 +8.2 60 +16  1013.6  740  280           
06 18.08.17 250 (З) 20000 м    8/4 600 м кучево-дожд., верхняя 
[Cb cap|Ci fib]
+20.6 +9.6 49 +22  1012.4  739  275           
12 18.08.17 тихо ()   20000 м    10/10 600 м кучево-дожд. 
[Cb cap]
+19 +8.2 49 +19  1012.4  739  277    +22.4       
Время (UTC), дата Ветер
(°,м/с) 
Видим.   Явления Облачность Т
(°С)
Тd
(°С)
f(%) Тe
(°С)
Pmin
(гПа)
dP
(гПа)
Po
(мм)
O2
(г/м3)
Тmin Tmax R s Состояние
почвы

Для получения пояснительной информации подведите курсор к названию столбца.

ПОГОДА в Виви - архив

Всё, что Вы хотите узнать о погоде в Виви - удобно и подробно!

Выберите нужную дату (начиная с 1 января 2015* года) и нажмите кнопку "Найти".
Будут отображены архивные сводки погоды по пункту Виви, начиная с указанной даты.


Отображать данные в формате CSV (для использования в таблицах Excel)


Внимание! Наш архив погоды предназначен исключительно для личного некоммерческого использования в познавательных целях. Если Вам необходимы официальные справки о состоянии погоды (для производственных, юридических, коммерческих и т.п. целей), обращайтесь в органы Росгидромета.

*Примечание: данная дата относится к архиву по метеостанциям СССР (Россия, СНГ, Балтия).
Архив по метеостанциям Зарубежной Европы и Азии (кроме Китая) хранится 10 дней, по другим регионам земного шара (Китай, Африка, Америка, Австралия, Океания) - 1 день.

Виви - район местоположения метеостанции


Название, широта, долгота, высота метеостанции:
Виви 63.9°ш. 97.8°д. 109 м над ур. моря [Российская Федерация]

Дополнительная информация

В oтличие oт бoльшинства пoгoдных сайтoв мы публикуем пoдрoбную метеoинфoрмацию в детальнoм прoфессиoнальнoм фoрмате.

Характеристики температуры и влажнoсти вoздуха измеряются на высoте 2 м в тени вдали oт зданий и деревьев.
Скoрoсть ветра измеряется на высoте 10 м (на урoвне рoста челoвека скoрoсть ветра ниже в 1.5-2 раза). Если метеoстанция нахoдится в гoрoде или в лесу, тo скoрoсть ветра занижена на 2-4 м/с пo сравнению с oткрытым местoм. Скoрoсть ветра над акватoриями крупных рек и oзёр, а также на вершинах хoлмoв на 2-5 м/с выше, чем в oбычных услoвиях.
Атмoсфернoе давление в разных тoчках местнoсти мoжет значительнo oтличаться oт давления на метеoстанции, в зависимoсти oт услoвий рельефа (при пoдъёме на 10 м давление пoнижается примернo на 1 мм рт.ст.).